N2NET Weather Reports


time (UTC)temp
C
wind
direction
speed
KPH
gust
KPH
rain 1hr
cm
rain 24hr
cm
rain mn
cm
humidity
%
barometer
mb
20260506161624 15 232 0.0 1.6 0.28 0.64 0.64 100 1007.2
20260506154555 15 239 0.0 9.7 0.23 0.48 0.48 100 1007.2
20260506153058 15 326 0.0 4.8 0.18 0.41 0.41 100 1007.3
20260506151558 15 0 0.0 4.8 0.20 0.36 0.36 100 1007.4
20260506150052 15 0 0.0 0.0 0.20 0.30 0.30 100 1007.5
20260506144551 15 0 0.0 3.2 0.20 0.25 0.25 100 1007.6
20260506143053 15 360 0.0 3.2 0.23 0.23 0.23 100 1007.6
20260506141556 15 0 0.0 4.8 0.15 0.15 0.15 100 1007.9
20260506140053 15 339 1.6 4.8 0.10 0.10 0.10 100 1008.1
20260506134549 16 248 1.6 11.3 0.05 0.05 0.05 43 1008.0
20260506133053 16 212 1.6 8.0 0.00 0.00 0.00 62 1007.7
20260506131552 17 162 3.2 16.1 0.00 0.00 0.00 72 1007.3
20260506130103 17 217 4.8 11.3 0.00 0.00 0.00 71 1007.3
20260506124554 17 210 3.2 9.7 0.00 0.00 0.00 70 1007.4
20260506123050 17 195 4.8 12.9 0.00 0.00 0.00 70 1007.5
20260506121550 17 119 1.6 16.1 0.00 0.00 0.00 69 1007.7
20260506120052 17 139 3.2 20.9 0.00 0.00 0.00 69 1008.0
20260506114553 17 236 4.8 17.7 0.00 0.00 0.00 68 1008.0
20260506113056 17 199 3.2 14.5 0.00 0.00 0.00 68 1007.5
20260506111554 17 119 4.8 16.1 0.00 0.00 0.00 66 1007.4
20260506110057 17 217 3.2 14.5 0.00 0.00 0.00 66 1007.4
20260506104556 17 215 1.6 16.1 0.00 0.00 0.00 65 1007.2
20260506103058 17 252 3.2 16.1 0.00 0.00 0.00 64 1007.5
20260506101559 17 173 0.0 9.7 0.00 0.00 0.00 63 1007.0
20260506100109 17 198 4.8 12.9 0.00 0.00 0.00 62 1007.4
20260506094551 17 137 1.6 8.0 0.00 0.00 0.00 62 1007.3
20260506093053 17 101 0.0 8.0 0.00 0.00 0.00 61 1007.2
20260506091551 17 142 1.6 9.7 0.00 0.00 0.00 61 1007.3
20260506090048 17 207 0.0 12.9 0.00 0.00 0.00 60 1007.3
20260506084619 17 242 1.6 11.3 0.00 0.00 0.00 59 1007.5
20260506083054 17 110 0.0 4.8 0.00 0.00 0.00 59 1007.6
20260506081557 17 219 1.6 3.2 0.00 0.00 0.00 60 1007.7
20260506073055 18 273 3.2 4.8 0.00 0.00 0.00 54 1007.9
20260506071553 19 0 0.0 12.9 0.00 0.00 0.00 53 1007.8
20260506061552 20 269 1.6 9.7 0.00 0.00 0.00 52 1008.5
20260506044700 20 229 3.2 12.9 0.00 0.00 0.00 48 1008.6
20260506043107 21 228 6.4 14.5 0.00 0.00 0.00 47 1008.7
20260506041601 21 0 3.2 16.1 0.00 0.00 0.00 47 1008.7
20260506040054 21 4 1.6 14.5 0.00 0.00 0.00 46 1008.5
20260506034623 21 245 3.2 9.7 0.00 0.00 0.00 46 1008.6
20260506033058 21 273 1.6 14.5 0.00 0.00 0.00 45 1008.3
20260506031553 21 314 3.2 19.3 0.00 0.00 0.00 45 1008.2
20260506030051 21 240 4.8 11.3 0.00 0.00 0.00 45 1008.3
20260506024550 22 323 3.2 12.9 0.00 0.00 0.00 45 1008.3
20260506023108 21 290 3.2 9.7 0.00 0.00 0.00 46 1008.3
20260506021554 22 250 3.2 11.3 0.00 0.00 0.00 45 1008.3
20260506020052 22 121 4.8 16.1 0.00 0.00 0.00 45 1008.3
20260506014553 21 224 3.2 14.5 0.00 0.00 0.00 46 1008.3
20260506013055 21 224 1.6 11.3 0.00 0.00 0.00 47 1008.1
20260506011614 21 214 1.6 6.4 0.00 0.00 0.00 46 1007.8
20260506010101 22 0 0.0 4.8 0.00 0.00 0.00 44 1007.7
20260506004632 22 273 1.6 12.9 0.00 0.00 0.00 42 1007.5
20260506003111 22 145 0.0 8.0 0.00 0.00 0.00 45 1007.5
20260506001554 22 300 1.6 11.3 0.00 0.00 0.00 42 1007.2
20260506000059 22 314 4.8 17.7 0.00 0.00 0.00 43 1007.1
20260505234637 21 325 3.2 6.4 0.00 0.00 0.00 47 1007.0
20260505233102 21 0 0.0 4.8 0.00 0.00 0.00 45 1006.8
20260505231551 22 211 1.6 4.8 0.00 0.00 0.00 45 1006.7
20260505230053 22 293 4.8 9.7 0.00 0.00 0.00 41 1006.5
20260505224554 23 319 6.4 8.0 0.00 0.00 0.00 37 1006.2
20260505223051 23 229 4.8 14.5 0.00 0.00 0.00 35 1005.9
20260505221554 24 102 3.2 14.5 0.00 0.00 0.00 34 1006.0
20260505214601 25 297 8.0 20.9 0.00 0.00 0.00 32 1005.7
20260505213054 25 245 6.4 17.7 0.00 0.00 0.00 32 1005.4
20260505211554 25 211 3.2 27.4 0.00 0.00 0.00 32 1005.3
20260505210050 25 287 8.0 22.5 0.00 0.00 0.00 32 1005.0
20260505204549 26 193 8.0 17.7 0.00 0.00 0.00 31 1005.1
20260505203051 26 347 8.0 19.3 0.00 0.00 0.00 31 1005.0
20260505201550 26 232 8.0 30.6 0.00 0.00 0.00 31 1005.0
20260505200056 26 289 8.0 19.3 0.00 0.00 0.00 34 1005.2
20260505194554 25 205 8.0 25.7 0.00 0.00 0.00 34 1005.2
20260505193055 26 71 9.7 30.6 0.00 0.00 0.00 33 1005.3
20260505191557 26 212 11.3 29.0 0.00 0.00 0.00 32 1005.4
20260505190053 25 300 12.9 32.2 0.00 0.00 0.00 32 1005.6
20260505184549 26 271 14.5 35.4 0.00 0.00 0.00 32 1005.9
20260505183053 26 295 11.3 37.0 0.00 0.00 0.00 33 1005.9
20260505181550 25 287 8.0 45.1 0.00 0.00 0.00 35 1006.5
20260505174609 25 256 12.9 33.8 0.00 0.00 0.00 35 1006.4
20260505173053 25 283 6.4 22.5 0.00 0.00 0.00 38 1006.4
20260505172013 25 252 11.3 29.0 0.00 0.00 0.00 37 1006.5